Pittsfield, IL

8:45 AM CST on November 19, 2017 (GMT -0600)
Pittsfield Penstone Municipal

Weather History for KPPQ - July, 2013

Change the Weather History Date:

Thursday, July 4, 2013

  Actual Average (KUIN) Record (KUIN)
Temperature  
Mean Temperature 74 °F -  
Max Temperature 85 °F 85 °F 103 °F (1936)
Min Temperature 64 °F 66 °F 48 °F (1940)
Cooling Degree Days 10    
Growing Degree Days 24 (Base 50)    
Moisture  
Dew Point 60 °F    
Average Humidity 64    
Maximum Humidity 85    
Minimum Humidity 37    
Precipitation  
Precipitation 0.00 in - - ()
Sea Level Pressure  
Sea Level Pressure 30.07 in    
Wind  
Wind Speed 4 mph (South)    
Max Wind Speed 9 mph    
Max Gust Speed -    
Visibility 10 miles    
Events      
Averages and records for this station are not official NWS values.
T = Trace of Precipitation, MM = Missing Value Source: NWS Daily Summary

Daily Weather History Graph

Daily Weather History Graph

Search for Another Location

Airport or City:

Trip Planner

Search our weather history database for the weather conditions in past years. The results will help you decide how hot, cold, wet, or windy it might be!

Date:

Astronomy

Jul. 04, 2013 Rise Set
Actual Time 5:40 AM CDT 8:34 PM CDT
Civil Twilight 5:08 AM CDT 9:06 PM CDT
Nautical Twilight 4:27 AM CDT 9:47 PM CDT
Astronomical Twilight 3:40 AM CDT 10:33 PM CDT
Moon 2:57 AM CDT (7/4) 5:38 PM CDT (7/4)
Length of Visible Light 15h 57m
Length of Day
14h 53m
Waning Crescent, 11% of the Moon is Illuminated
Jul 4
Waning Crescent
Jul 8
New
Jul 15
First Quarter
Jul 22
Full
Jul 29
Last Quarter

Hourly Weather History & Observations

Time (CDT) Temp. Heat Index Dew Point Humidity Pressure Visibility Wind Dir Wind Speed Gust Speed Precip Events Conditions
12:15 AM 68.5 °F - 61.7 °F 79% 30.08 in 7.0 mi Calm Calm - N/A   Mostly Cloudy
12:35 AM 69.3 °F - 61.7 °F 77% 30.07 in 10.0 mi SE 3.5 mph - N/A   Mostly Cloudy
12:55 AM 66.4 °F - 61.9 °F 85% 30.07 in 10.0 mi SSE 3.5 mph - N/A   Mostly Cloudy
1:15 AM 66.4 °F - 61.7 °F 85% 30.07 in 10.0 mi SSE 5.8 mph - N/A   Mostly Cloudy
1:35 AM 66.2 °F - 61.3 °F 84% 30.07 in 10.0 mi SSE 4.6 mph - N/A   Scattered Clouds
1:55 AM 66.0 °F - 61.0 °F 84% 30.07 in 5.0 mi SSE 4.6 mph - N/A   Haze
2:15 AM 65.8 °F - 60.8 °F 84% 30.07 in 10.0 mi SSE 4.6 mph - N/A   Clear
2:35 AM 65.3 °F - 60.8 °F 85% 30.06 in 10.0 mi South 3.5 mph - N/A   Clear
2:55 AM 65.3 °F - 60.3 °F 84% 30.06 in 7.0 mi South 3.5 mph - N/A   Clear
3:15 AM 64.9 °F - 60.3 °F 85% 30.06 in 5.0 mi SSE 4.6 mph - N/A   Haze
3:35 AM 65.3 °F - 60.3 °F 84% 30.06 in 7.0 mi South 4.6 mph - N/A   Clear
3:55 AM 65.3 °F - 60.3 °F 84% 30.07 in 10.0 mi South 4.6 mph - N/A   Clear
4:15 AM 65.5 °F - 59.9 °F 82% 30.06 in 10.0 mi SSW 4.6 mph - N/A   Clear
4:35 AM 65.7 °F - 59.9 °F 82% 30.06 in 10.0 mi South 5.8 mph - N/A   Clear
4:55 AM 66.0 °F - 59.9 °F 81% 30.06 in 10.0 mi South 6.9 mph - N/A   Clear
5:15 AM 65.8 °F - 59.9 °F 81% 30.07 in 10.0 mi SSW 4.6 mph - N/A   Clear
5:35 AM 66.2 °F - 59.7 °F 80% 30.07 in 10.0 mi South 6.9 mph - N/A   Clear
5:55 AM 66.2 °F - 59.7 °F 80% 30.07 in 10.0 mi SSW 5.8 mph - N/A   Clear
6:15 AM 66.2 °F - 59.9 °F 80% 30.08 in 10.0 mi SSW 4.6 mph - N/A   Clear
6:35 AM 66.4 °F - 60.1 °F 80% 30.08 in 10.0 mi SW 3.5 mph - N/A   Clear
6:55 AM 67.3 °F - 61.0 °F 80% 30.09 in 10.0 mi Calm Calm - N/A   Clear
7:15 AM 68.2 °F - 61.3 °F 79% 30.10 in 10.0 mi SSW 3.5 mph - N/A   Clear
7:35 AM 69.4 °F - 61.7 °F 76% 30.10 in 10.0 mi Calm Calm - N/A   Clear
7:55 AM 71.2 °F - 61.5 °F 71% 30.10 in 10.0 mi WSW 5.8 mph - N/A   Clear
8:15 AM 72.0 °F - 61.2 °F 69% 30.10 in 10.0 mi SW 4.6 mph - N/A   Clear
8:35 AM 72.9 °F - 61.5 °F 67% 30.10 in 10.0 mi SSW 4.6 mph - N/A   Clear
8:55 AM 74.7 °F - 61.7 °F 64% 30.10 in 10.0 mi WSW 5.8 mph - N/A   Clear
9:15 AM 75.4 °F - 62.2 °F 64% 30.11 in 10.0 mi South 4.6 mph - N/A   Clear
9:35 AM 76.5 °F - 62.6 °F 62% 30.10 in 10.0 mi SSW 4.6 mph - N/A   Clear
9:55 AM 77.0 °F - 61.2 °F 58% 30.09 in 10.0 mi SW 3.5 mph - N/A   Clear
10:15 AM 77.9 °F - 61.2 °F 56% 30.10 in 10.0 mi Calm Calm - N/A   Clear
10:35 AM 79.2 °F - 62.8 °F 57% 30.10 in 10.0 mi SW 3.5 mph - N/A   Clear
10:55 AM 79.7 °F - 62.1 °F 55% 30.10 in 10.0 mi Calm Calm - N/A   Clear
11:15 AM 80.6 °F 81.6 °F 61.7 °F 52% 30.09 in 10.0 mi SW 3.5 mph - N/A   Clear
11:35 AM 81.5 °F 82.5 °F 62.2 °F 52% 30.09 in 10.0 mi Calm Calm - N/A   Clear
11:55 AM 81.5 °F 82.5 °F 62.2 °F 52% 30.09 in 10.0 mi SE 5.8 mph - N/A   Clear
12:15 PM 82.0 °F 83.0 °F 62.4 °F 51% 30.09 in 10.0 mi SSE 5.8 mph - N/A   Clear
12:35 PM 82.6 °F 83.4 °F 62.1 °F 50% 30.09 in 10.0 mi South 4.6 mph - N/A   Clear
12:55 PM 83.5 °F 83.1 °F 58.3 °F 42% 30.08 in 10.0 mi SSW 3.5 mph - N/A   Clear
1:15 PM 84.2 °F 83.3 °F 56.8 °F 39% 30.08 in 10.0 mi SSE 6.9 mph - N/A   Clear
1:35 PM 83.5 °F 82.8 °F 57.0 °F 40% 30.08 in 10.0 mi SSE 5.8 mph - N/A   Scattered Clouds
1:55 PM 82.9 °F 82.4 °F 56.7 °F 41% 30.08 in 10.0 mi SE 5.8 mph - N/A   Scattered Clouds
2:15 PM 84.2 °F 83.7 °F 57.9 °F 41% 30.07 in 10.0 mi South 5.8 mph - N/A   Scattered Clouds
2:35 PM 84.2 °F 83.3 °F 56.7 °F 39% 30.07 in 10.0 mi South 6.9 mph - N/A   Clear
2:55 PM 84.7 °F 83.7 °F 56.5 °F 38% 30.06 in 10.0 mi SSE 6.9 mph - N/A   Clear
3:15 PM 84.9 °F 83.7 °F 55.8 °F 37% 30.06 in 10.0 mi South 6.9 mph - N/A   Clear
3:35 PM 84.7 °F 84.0 °F 57.7 °F 40% 30.05 in 10.0 mi SE 3.5 mph - N/A   Clear
3:55 PM 85.1 °F 84.8 °F 59.5 °F 42% 30.05 in 10.0 mi SSE 6.9 mph - N/A   Scattered Clouds
4:15 PM 84.6 °F 83.7 °F 57.0 °F 39% 30.05 in 10.0 mi South 3.5 mph - N/A   Scattered Clouds
4:35 PM 84.4 °F 83.5 °F 57.0 °F 39% 30.05 in 10.0 mi SE 5.8 mph - N/A   Scattered Clouds
4:55 PM 84.6 °F 84.8 °F 60.8 °F 45% 30.04 in 10.0 mi South 6.9 mph - N/A   Clear
5:15 PM 83.7 °F 83.3 °F 58.6 °F 42% 30.03 in 10.0 mi South 5.8 mph - N/A   Clear
5:35 PM 83.3 °F 82.9 °F 58.3 °F 42% 30.03 in 10.0 mi SSE 5.8 mph - N/A   Clear
5:55 PM 82.9 °F 82.7 °F 58.5 °F 43% 30.03 in 10.0 mi SE 9.2 mph - N/A   Clear
6:15 PM 82.6 °F 82.3 °F 57.9 °F 43% 30.03 in 10.0 mi SSE 5.8 mph - N/A   Clear
6:35 PM 82.0 °F 82.0 °F 58.3 °F 44% 30.03 in 10.0 mi SSE 4.6 mph - N/A   Clear
6:55 PM 81.5 °F 81.8 °F 59.4 °F 47% 30.03 in 10.0 mi South 4.6 mph - N/A   Clear
7:15 PM 80.4 °F 81.3 °F 60.8 °F 51% 30.03 in 10.0 mi South 3.5 mph - N/A   Clear
7:35 PM 79.2 °F - 61.9 °F 55% 30.04 in 10.0 mi Calm Calm - N/A   Clear
7:55 PM 77.5 °F - 63.0 °F 61% 30.04 in 10.0 mi South 4.6 mph - N/A   Clear
8:15 PM 75.7 °F - 63.1 °F 65% 30.04 in 10.0 mi SSE 3.5 mph - N/A   Clear
8:35 PM 73.9 °F - 63.5 °F 70% 30.04 in 10.0 mi SE 3.5 mph - N/A   Clear
8:55 PM 73.6 °F - 62.6 °F 68% 30.04 in 10.0 mi ESE 4.6 mph - N/A   Clear
9:15 PM 72.0 °F - 62.6 °F 72% 30.04 in 10.0 mi SE 4.6 mph - N/A   Clear
9:35 PM 71.1 °F - 62.6 °F 75% 30.05 in 10.0 mi SE 3.5 mph - N/A   Clear
9:55 PM 71.1 °F - 62.2 °F 74% 30.06 in 10.0 mi SE 5.8 mph - N/A   Clear
10:15 PM 70.2 °F - 62.1 °F 75% 30.05 in 10.0 mi SE 6.9 mph - N/A   Clear
10:35 PM 70.9 °F - 61.5 °F 72% 30.05 in 10.0 mi SE 4.6 mph - N/A   Clear
10:55 PM 70.3 °F - 61.3 °F 73% 30.06 in 10.0 mi SE 4.6 mph - N/A   Clear
11:15 PM 69.1 °F - 61.5 °F 77% 30.05 in 10.0 mi SSE 3.5 mph - N/A   Clear
11:35 PM 69.1 °F - 61.2 °F 76% 30.05 in 10.0 mi South 3.5 mph - N/A   Clear
11:55 PM 68.9 °F - 61.0 °F 76% 30.05 in 10.0 mi SSE 4.6 mph - N/A   Clear